Location: Rotheul
(50.2849°N, 11.2349°E)
Time: 17:58:11
(UTC+02:00)

ISS - Pass Details

Date: 22 May 2018
Orbit: 402 x 407 km, 51.6° (Epoch: 23 May)

Event Time Altitude Azimuth Distance (km) Brightness Sun altitude
Rises 22:59:04 0° 243° (WSW) 2,314 0.1 -13.4°
Reaches altitude 10° 23:01:09 10° 240° (WSW) 1,456 -1.0 -13.6°
Maximum altitude 23:04:23 64° 159° (SSE) 450 -3.9 -13.8°
Drops below altitude 10° 23:07:37 10° 76° (ENE) 1,459 -1.2 -14.1°
Sets 23:09:43 0° 74° (ENE) 2,320 -0.1 -14.2°
